Date String (YYYY-MM-DD hh:mm:ss) UTC,Instrument flags,absolute air pressure of the measurement (hPa),sample flow rate (lpm),inlet stack bypass flow (lpm),air temperature of the measurement (°C),ambient temperature measured by the external sensor (°C),aerosol sample conditioner tube jacket temperature (°C),OPC LED temperature (°C),internal box temperature (°C),relative humidity of the measurement (%),span deviation,mass concentration of particles derived from Lorenz-Mie calculation of OPC scattering (μg/m³),mass concentration of particles derived from Lorenz-Mie calculation of OPC scattering (μg/m³),mass concentration of particles derived from Lorenz-Mie calculation of OPC scattering (μg/m³)
DateTimeUTC,F1_M11,P_M11,Q1_M11,Q2_M11,T1_M11,T2_M11,T3_M11,T4_M11,T5_M11,U1_M11,ZSPAN_M11,X2_M11,X0_M11,X1_M11
2024-05-31 21:00:00,SystemResetWarning,0830.0,5.00,000.00,030.9,030.2,000.0,039.2,032.6,024.5,0000.5,0007.50,0012.46,0006.57
2024-05-31 21:01:00,SystemResetWarning,0830.0,4.99,000.00,030.9,030.2,000.0,039.2,032.6,024.7,0000.8,0007.45,0012.73,0006.53
2024-05-31 21:02:00,SystemResetWarning,0830.0,5.00,000.00,030.9,030.2,000.0,039.2,032.6,024.5,0000.7,0007.29,0012.34,0006.46
2024-05-31 21:03:00,SystemResetWarning,0830.0,5.00,000.00,030.9,030.2,000.0,039.3,032.6,024.6,0000.2,0007.18,0012.06,0006.40
2024-05-31 21:04:00,SystemResetWarning,0830.0,5.00,000.00,030.9,030.2,000.0,039.3,032.7,024.5,0000.4,0007.07,0012.46,0006.33
2024-05-31 21:05:00,SystemResetWarning,0830.0,5.00,000.00,030.9,030.3,000.0,039.3,032.7,024.1,0000.6,0007.06,0012.43,0006.31
2024-05-31 21:06:00,SystemResetWarning,0830.1,5.01,000.00,030.9,030.3,000.0,039.3,032.7,024.0,0001.1,0007.05,0012.35,0006.32
2024-05-31 21:07:00,SystemResetWarning,0830.0,5.01,000.00,031.0,030.3,000.0,039.3,032.7,024.0,0001.4,0007.02,0012.83,0006.32
2024-05-31 21:08:00,SystemResetWarning,0830.0,5.00,000.00,031.0,030.3,000.0,039.3,032.7,024.1,0001.4,0007.00,0012.67,0006.31
2024-05-31 21:09:00,SystemResetWarning,0830.0,5.00,000.00,031.0,030.3,000.0,039.3,032.7,024.1,0001.0,0006.99,0012.97,0006.29
2024-05-31 21:10:00,SystemResetWarning,0830.0,5.00,000.00,031.0,030.3,000.0,039.3,032.7,024.1,0000.8,0006.99,0012.99,0006.28
2024-05-31 21:11:00,SystemResetWarning,0830.0,5.00,000.00,031.0,030.3,000.0,039.4,032.7,024.4,0000.6,0006.97,0013.35,0006.29
2024-05-31 21:12:00,SystemResetWarning,0830.0,4.99,000.00,031.0,030.4,000.0,039.4,032.8,025.0,0000.4,0006.97,0013.01,0006.32
2024-05-31 21:13:00,SystemResetWarning,0830.1,4.99,000.00,031.0,030.4,000.0,039.4,032.8,024.9,0000.7,0007.05,0013.39,0006.35
2024-05-31 21:14:00,SystemResetWarning,0830.1,5.00,000.00,031.1,030.4,000.0,039.4,032.8,024.2,0001.3,0007.13,0013.89,0006.40
2024-05-31 21:15:00,SystemResetWarning,0830.0,5.02,000.00,031.1,030.4,000.0,039.4,032.8,023.9,0001.2,0007.23,0013.88,0006.48
2024-05-31 21:16:00,SystemResetWarning,0830.0,5.00,000.00,031.1,030.4,000.0,039.4,032.8,024.1,0000.9,0007.29,0014.71,0006.52
2024-05-31 21:17:00,SystemResetWarning,0830.0,4.99,000.00,031.1,030.4,000.0,039.4,032.8,024.2,0000.5,0007.33,0014.86,0006.55
2024-05-31 21:18:00,SystemResetWarning,0830.0,5.00,000.00,031.1,030.4,000.0,039.5,032.8,024.0,0000.1,0007.41,0014.24,0006.57
2024-05-31 21:19:00,SystemResetWarning,0829.9,5.00,000.00,031.1,030.4,000.0,039.5,032.8,024.6,0000.5,0007.46,0014.32,0006.59
2024-05-31 21:20:00,SystemResetWarning,0830.0,5.00,000.00,031.1,030.4,000.0,039.5,032.8,024.2,0001.2,0007.48,0014.30,0006.61
2024-05-31 21:21:00,SystemResetWarning,0830.0,4.99,000.00,031.1,030.5,000.0,039.5,032.9,024.0,0001.6,0007.51,0014.28,0006.64
2024-05-31 21:22:00,SystemResetWarning,0830.0,5.01,000.00,031.1,030.5,000.0,039.5,032.9,024.2,0001.4,0007.56,0014.00,0006.66
2024-05-31 21:23:00,SystemResetWarning,0830.0,5.01,000.00,031.2,030.5,000.0,039.5,032.9,024.2,0001.7,0007.63,0014.09,0006.68
2024-05-31 21:24:00,SystemResetWarning,0830.0,5.00,000.00,031.2,030.5,000.0,039.5,032.9,024.4,0001.4,0007.64,0014.65,0006.69
2024-05-31 21:25:00,SystemResetWarning,0830.0,5.00,000.00,031.2,030.5,000.0,039.5,032.9,023.8,0001.2,0007.63,0014.65,0006.70
2024-05-31 21:26:00,SystemResetWarning,0830.0,5.00,000.00,031.2,030.5,000.0,039.6,032.9,023.8,0000.5,0007.61,0014.85,0006.69
2024-05-31 21:27:00,SystemResetWarning,0830.0,5.00,000.00,031.2,030.5,000.0,039.6,032.9,023.8,0000.8,0007.59,0014.31,0006.67
2024-05-31 21:28:00,SystemResetWarning,0830.0,4.99,000.00,031.2,030.5,000.0,039.6,032.9,024.0,0001.0,0007.59,0014.38,0006.67
2024-05-31 21:29:00,SystemResetWarning,0830.0,5.00,000.00,031.2,030.5,000.0,039.6,032.9,023.8,0001.1,0007.52,0014.24,0006.65
2024-05-31 21:30:00,SystemResetWarning,0830.0,5.00,000.00,031.2,030.5,000.0,039.6,032.9,024.0,0001.3,0007.51,0014.24,0006.65
2024-05-31 21:31:00,SystemResetWarning,0830.0,5.01,000.00,031.2,030.6,000.0,039.6,033.0,023.8,0001.2,0007.54,0014.47,0006.66
2024-05-31 21:32:00,SystemResetWarning,0829.9,5.01,000.00,031.3,030.6,000.0,039.6,033.0,023.9,0000.5,0007.51,0014.98,0006.65
2024-05-31 21:33:00,SystemResetWarning,0829.9,5.00,000.00,031.3,030.6,000.0,039.6,033.0,023.8,0000.7,0007.45,0014.80,0006.61
2024-05-31 21:34:00,SystemResetWarning,0829.8,4.99,000.00,031.3,030.6,000.0,039.7,033.0,023.9,0000.9,0007.42,0015.03,0006.60
2024-05-31 21:35:00,SystemResetWarning,0829.8,4.99,000.00,031.3,030.6,000.0,039.7,033.0,024.0,0001.0,0007.48,0015.12,0006.63
2024-05-31 21:36:00,SystemResetWarning,0829.8,5.00,000.00,031.3,030.7,000.0,039.7,033.0,023.7,0000.9,0007.52,0017.00,0006.66
2024-05-31 21:37:00,SystemResetWarning,0829.8,5.00,000.00,031.3,030.7,000.0,039.7,033.0,023.8,0001.2,0007.56,0016.68,0006.68
2024-05-31 21:38:00,SystemResetWarning,0829.8,5.01,000.00,031.3,030.7,000.0,039.7,033.1,023.9,0001.4,0007.59,0017.94,0006.70
2024-05-31 21:39:00,SystemResetWarning,0829.7,5.01,000.00,031.4,030.7,000.0,039.7,033.1,023.6,0001.5,0007.57,0017.52,0006.68
2024-05-31 21:40:00,SystemResetWarning,0829.7,4.99,000.00,031.4,030.7,000.0,039.7,033.1,023.5,0001.6,0007.55,0017.54,0006.68
2024-05-31 21:41:00,SystemResetWarning,0829.7,4.99,000.00,031.4,030.7,000.0,039.8,033.1,023.7,0001.0,0007.54,0018.06,0006.67
2024-05-31 21:42:00,SystemResetWarning,0829.7,5.02,000.00,031.4,030.7,000.0,039.8,033.1,023.7,0000.9,0007.55,0017.79,0006.66
2024-05-31 21:43:00,SystemResetWarning,0829.7,5.00,000.00,031.4,030.7,000.0,039.8,033.1,024.1,0000.8,0007.54,0018.36,0006.67
2024-05-31 21:44:00,SystemResetWarning,0829.7,4.99,000.00,031.4,030.7,000.0,039.8,033.1,023.7,0000.8,0007.52,0019.18,0006.66
2024-05-31 21:45:00,SystemResetWarning,0829.8,5.00,000.00,031.4,030.7,000.0,039.8,033.1,023.8,0000.8,0007.53,0018.92,0006.66
2024-05-31 21:46:00,SystemResetWarning,0829.8,5.00,000.00,031.4,030.7,000.0,039.8,033.1,024.1,0001.0,0007.44,0018.78,0006.61
2024-05-31 21:47:00,SystemResetWarning,0829.9,5.01,000.00,031.4,030.7,000.0,039.8,033.1,023.7,0001.3,0007.39,0016.66,0006.56
2024-05-31 21:48:00,SystemResetWarning,0829.9,5.00,000.00,031.4,030.7,000.0,039.9,033.1,023.7,0001.1,0007.38,0016.12,0006.52
2024-05-31 21:49:00,SystemResetWarning,0829.8,5.00,000.00,031.4,030.7,000.0,039.9,033.1,023.4,0000.9,0007.28,0015.01,0006.46
2024-05-31 21:50:00,SystemResetWarning,0829.8,4.99,000.00,031.4,030.7,000.0,039.9,033.1,023.8,0000.5,0007.23,0014.82,0006.44
2024-05-31 21:51:00,SystemResetWarning,0829.8,5.00,000.00,031.4,030.7,000.0,039.9,033.1,024.1,0000.5,0007.23,0015.14,0006.41
2024-05-31 21:52:00,SystemResetWarning,0829.8,5.00,000.00,031.4,030.7,000.0,039.9,033.1,024.5,0000.7,0007.23,0014.91,0006.39
2024-05-31 21:53:00,SystemResetWarning,0829.8,5.00,000.00,031.4,030.8,000.0,039.9,033.1,024.5,0000.7,0007.15,0016.08,0006.33
2024-05-31 21:54:00,SystemResetWarning,0829.8,5.00,000.00,031.5,030.8,000.0,039.9,033.1,024.3,0000.5,0007.10,0015.79,0006.28
2024-05-31 21:55:00,SystemResetWarning,0829.7,5.00,000.00,031.5,030.8,000.0,039.9,033.2,023.8,0000.3,0007.13,0014.96,0006.27
2024-05-31 21:56:00,SystemResetWarning,0829.7,5.00,000.00,031.5,030.8,000.0,039.9,033.2,024.1,-000.2,0007.13,0015.75,0006.28
2024-05-31 21:57:00,SystemResetWarning,0829.7,5.00,000.00,031.5,030.8,000.0,039.9,033.2,024.4,0000.1,0007.12,0016.31,0006.28
2024-05-31 21:58:00,SystemResetWarning,0829.6,5.01,000.00,031.5,030.8,000.0,039.9,033.2,023.9,0000.3,0007.14,0016.47,0006.28
2024-05-31 21:59:00,SystemResetWarning,0829.4,5.00,000.00,031.5,030.9,000.0,039.9,033.2,023.9,0000.2,0007.16,0016.55,0006.28
